owner,sensor,date,latitude,longitude,vertical_datum,mass_concentration_of_oxygen_in_sea_water,qcFlag 
SCCF RECON,ioos:station:SCCF:11:1,2015-06-01T00:00:00Z,26.4679,-82.0631,1.67,3.45,1111122 
SCCF RECON,ioos:station:SCCF:11:1,2015-06-01T01:00:00Z,26.4679,-82.0631,1.6,3.58,1111122 
SCCF RECON,ioos:station:SCCF:11:1,2015-06-01T02:00:00Z,26.4679,-82.0631,1.59,3.39,1111122 
SCCF RECON,ioos:station:SCCF:11:1,2015-06-01T03:00:00Z,26.4679,-82.0631,1.6,3.22,1111122 
SCCF RECON,ioos:station:SCCF:11:1,2015-06-01T04:00:00Z,26.4679,-82.0631,1.65,3.3,1111122 
SCCF RECON,ioos:station:SCCF:11:1,2015-06-01T05:00:00Z,26.4679,-82.0631,1.7,3.36,1111122 
SCCF RECON,ioos:station:SCCF:11:1,2015-06-01T06:00:00Z,26.4679,-82.0631,1.76,3.41,1111122 
SCCF RECON,ioos:station:SCCF:11:1,2015-06-01T07:00:00Z,26.4679,-82.0631,1.79,3.14,1111122 
SCCF RECON,ioos:station:SCCF:11:1,2015-06-01T08:00:00Z,26.4679,-82.0631,1.8,3.09,1111122 
SCCF RECON,ioos:station:SCCF:11:1,2015-06-01T09:00:00Z,26.4679,-82.0631,1.8,3.2,1111122 
SCCF RECON,ioos:station:SCCF:11:1,2015-06-01T10:00:00Z,26.4679,-82.0631,1.78,3.27,1111122 
SCCF RECON,ioos:station:SCCF:11:1,2015-06-01T11:00:00Z,26.4679,-82.0631,1.77,2.99,1111122 
SCCF RECON,ioos:station:SCCF:11:1,2015-06-01T12:00:00Z,26.4679,-82.0631,1.77,2.95,1111122 
SCCF RECON,ioos:station:SCCF:11:1,2015-06-01T13:00:00Z,26.4679,-82.0631,1.79,3.35,1111122 
SCCF RECON,ioos:station:SCCF:11:1,2015-06-01T14:00:00Z,26.4679,-82.0631,1.83,3.25,1111122 
SCCF RECON,ioos:station:SCCF:11:1,2015-06-01T15:00:00Z,26.4679,-82.0631,1.89,3.29,1111122 
SCCF RECON,ioos:station:SCCF:11:1,2015-06-01T16:00:00Z,26.4679,-82.0631,1.96,3.38,1111122 
SCCF RECON,ioos:station:SCCF:11:1,2015-06-01T17:00:00Z,26.4679,-82.0631,2.03,3.48,1111122 
SCCF RECON,ioos:station:SCCF:11:1,2015-06-01T18:00:00Z,26.4679,-82.0631,2.07,3.54,1111122 
SCCF RECON,ioos:station:SCCF:11:1,2015-06-01T19:00:00Z,26.4679,-82.0631,2.09,3.39,1111122 
SCCF RECON,ioos:station:SCCF:11:1,2015-06-01T20:00:00Z,26.4679,-82.0631,2.06,3.37,1111122 
SCCF RECON,ioos:station:SCCF:11:1,2015-06-01T21:00:00Z,26.4679,-82.0631,1.99,3.53,1111122 
SCCF RECON,ioos:station:SCCF:11:1,2015-06-01T22:00:00Z,26.4679,-82.0631,1.891,3.32,1111122 
SCCF RECON,ioos:station:SCCF:11:1,2015-06-01T23:00:00Z,26.4679,-82.0631,1.79,3.33,1111122 
SCCF RECON,ioos:station:SCCF:11:1,2015-06-02T00:00:00Z,26.4679,-82.0631,1.7,3.3,1111122 
SCCF RECON,ioos:station:SCCF:11:1,2015-06-02T01:00:00Z,26.4679,-82.0631,1.62,3.47,1111122 
SCCF RECON,ioos:station:SCCF:11:1,2015-06-02T02:00:00Z,26.4679,-82.0631,1.59,3.2,1111122 
SCCF RECON,ioos:station:SCCF:11:1,2015-06-02T03:00:00Z,26.4679,-82.0631,1.59,3.39,1111122 
SCCF RECON,ioos:station:SCCF:11:1,2015-06-02T04:00:00Z,26.4679,-82.0631,1.63,3.22,1111122 
SCCF RECON,ioos:station:SCCF:11:1,2015-06-02T05:00:00Z,26.4679,-82.0631,1.68,3.04,1111122 
SCCF RECON,ioos:station:SCCF:11:1,2015-06-02T06:00:00Z,26.4679,-82.0631,1.73,3.09,1111122 
SCCF RECON,ioos:station:SCCF:11:1,2015-06-02T07:00:00Z,26.4679,-82.0631,1.77,3.24,1111122 
SCCF RECON,ioos:station:SCCF:11:1,2015-06-02T08:00:00Z,26.4679,-82.0631,1.79,3.25,1111122 
SCCF RECON,ioos:station:SCCF:11:1,2015-06-02T09:00:00Z,26.4679,-82.0631,1.79,2.94,1111122 
SCCF RECON,ioos:station:SCCF:11:1,2015-06-02T10:00:00Z,26.4679,-82.0631,1.78,2.91,1111122 
SCCF RECON,ioos:station:SCCF:11:1,2015-06-02T11:00:00Z,26.4679,-82.0631,1.77,2.86,1111122 
SCCF RECON,ioos:station:SCCF:11:1,2015-06-02T12:00:00Z,26.4679,-82.0631,1.78,2.8,1111122 
SCCF RECON,ioos:station:SCCF:11:1,2015-06-02T13:00:00Z,26.4679,-82.0631,1.78,2.42,1111122 
SCCF RECON,ioos:station:SCCF:11:1,2015-06-02T14:00:00Z,26.4679,-82.0631,1.806,2.83,1111122 
SCCF RECON,ioos:station:SCCF:11:1,2015-06-02T15:00:00Z,26.4679,-82.0631,1.85,2.95,1111122 
SCCF RECON,ioos:station:SCCF:11:1,2015-06-02T16:00:00Z,26.4679,-82.0631,1.92,2.96,1111122 
SCCF RECON,ioos:station:SCCF:11:1,2015-06-02T17:00:00Z,26.4679,-82.0631,1.99,3.01,1111122 
SCCF RECON,ioos:station:SCCF:11:1,2015-06-02T18:00:00Z,26.4679,-82.0631,2.05,3.07,1111122 
SCCF RECON,ioos:station:SCCF:11:1,2015-06-02T19:00:00Z,26.4679,-82.0631,2.07,3.02,1111122 
SCCF RECON,ioos:station:SCCF:11:1,2015-06-02T20:00:00Z,26.4679,-82.0631,2.06,3.0,1111122 
SCCF RECON,ioos:station:SCCF:11:1,2015-06-02T21:00:00Z,26.4679,-82.0631,2.01,2.96,1111122 
SCCF RECON,ioos:station:SCCF:11:1,2015-06-02T22:00:00Z,26.4679,-82.0631,1.94,2.98,1111122 
SCCF RECON,ioos:station:SCCF:11:1,2015-06-02T23:00:00Z,26.4679,-82.0631,1.85,2.92,1111122 
SCCF RECON,ioos:station:SCCF:11:1,2015-06-03T00:00:00Z,26.4679,-82.0631,1.74,2.99,1111122 
SCCF RECON,ioos:station:SCCF:11:1,2015-06-03T01:00:00Z,26.4679,-82.0631,1.64,3.0,1111122 
SCCF RECON,ioos:station:SCCF:11:1,2015-06-03T02:00:00Z,26.4679,-82.0631,1.57,2.75,1111122 
SCCF RECON,ioos:station:SCCF:11:1,2015-06-03T03:00:00Z,26.4679,-82.0631,1.55,2.73,1111122 
SCCF RECON,ioos:station:SCCF:11:1,2015-06-03T04:00:00Z,26.4679,-82.0631,1.57,2.83,1111122 
SCCF RECON,ioos:station:SCCF:11:1,2015-06-03T05:00:00Z,26.4679,-82.0631,1.61,2.94,1111122 
SCCF RECON,ioos:station:SCCF:11:1,2015-06-03T06:00:00Z,26.4679,-82.0631,1.67,2.82,1111122 
SCCF RECON,ioos:station:SCCF:11:1,2015-06-03T07:00:00Z,26.4679,-82.0631,1.72,2.94,1111122 
SCCF RECON,ioos:station:SCCF:11:1,2015-06-03T08:00:00Z,26.4679,-82.0631,1.77,2.81,1111122 
SCCF RECON,ioos:station:SCCF:11:1,2015-06-03T09:00:00Z,26.4679,-82.0631,1.78,2.92,1111122 
SCCF RECON,ioos:station:SCCF:11:1,2015-06-03T10:00:00Z,26.4679,-82.0631,1.77,2.65,1111122 
SCCF RECON,ioos:station:SCCF:11:1,2015-06-03T11:00:00Z,26.4679,-82.0631,1.75,2.92,1111122 
SCCF RECON,ioos:station:SCCF:11:1,2015-06-03T12:00:00Z,26.4679,-82.0631,1.75,2.8,1111122 
SCCF RECON,ioos:station:SCCF:11:1,2015-06-03T13:00:00Z,26.4679,-82.0631,1.75,2.66,1111122 
SCCF RECON,ioos:station:SCCF:11:1,2015-06-03T14:00:00Z,26.4679,-82.0631,1.77,2.94,1111122 
SCCF RECON,ioos:station:SCCF:11:1,2015-06-03T16:00:00Z,26.4679,-82.0631,2.288,6.05,1111122 
SCCF RECON,ioos:station:SCCF:11:1,2015-06-03T17:00:00Z,26.4679,-82.0631,2.34,6.41,1111122 
SCCF RECON,ioos:station:SCCF:11:1,2015-06-03T18:00:00Z,26.4679,-82.0631,2.34,6.68,1111122 
SCCF RECON,ioos:station:SCCF:11:1,2015-06-03T19:00:00Z,26.4679,-82.0631,2.25,7.44,1111122 
SCCF RECON,ioos:station:SCCF:11:1,2015-06-03T20:00:00Z,26.4679,-82.0631,2.099,7.8,1111122 
SCCF RECON,ioos:station:SCCF:11:1,2015-06-03T21:00:00Z,26.4679,-82.0631,1.91,7.55,1111122 
SCCF RECON,ioos:station:SCCF:11:1,2015-06-03T22:00:00Z,26.4679,-82.0631,1.754,7.56,1111122 
SCCF RECON,ioos:station:SCCF:11:1,2015-06-03T23:00:00Z,26.4679,-82.0631,1.608,7.59,1111122 
SCCF RECON,ioos:station:SCCF:11:1,2015-06-04T00:00:00Z,26.4679,-82.0631,1.483,7.52,1111122 
SCCF RECON,ioos:station:SCCF:11:1,2015-06-04T01:00:00Z,26.4679,-82.0631,1.402,7.33,1111122 
SCCF RECON,ioos:station:SCCF:11:1,2015-06-04T02:00:00Z,26.4679,-82.0631,1.441,7.13,1111122 
SCCF RECON,ioos:station:SCCF:11:1,2015-06-04T03:00:00Z,26.4679,-82.0631,1.59,6.73,1111122 
SCCF RECON,ioos:station:SCCF:11:1,2015-06-04T04:00:00Z,26.4679,-82.0631,1.76,6.72,1111122 
SCCF RECON,ioos:station:SCCF:11:1,2015-06-04T05:00:00Z,26.4679,-82.0631,1.89,6.05,1111122 
SCCF RECON,ioos:station:SCCF:11:1,2015-06-04T06:00:00Z,26.4679,-82.0631,1.97,6.54,1111122 
SCCF RECON,ioos:station:SCCF:11:1,2015-06-04T07:00:00Z,26.4679,-82.0631,2.05,6.39,1111122 
SCCF RECON,ioos:station:SCCF:11:1,2015-06-04T08:00:00Z,26.4679,-82.0631,2.08,5.93,1111122 
SCCF RECON,ioos:station:SCCF:11:1,2015-06-04T09:00:00Z,26.4679,-82.0631,2.04,6.09,1111122 
SCCF RECON,ioos:station:SCCF:11:1,2015-06-04T10:00:00Z,26.4679,-82.0631,1.96,5.71,1111122 
SCCF RECON,ioos:station:SCCF:11:1,2015-06-04T11:00:00Z,26.4679,-82.0631,1.91,5.66,1111122 
SCCF RECON,ioos:station:SCCF:11:1,2015-06-04T12:00:00Z,26.4679,-82.0631,1.87,5.49,1111122 
SCCF RECON,ioos:station:SCCF:11:1,2015-06-04T13:00:00Z,26.4679,-82.0631,1.87,5.59,1111122 
SCCF RECON,ioos:station:SCCF:11:1,2015-06-04T14:00:00Z,26.4679,-82.0631,1.95,5.47,1111122 
SCCF RECON,ioos:station:SCCF:11:1,2015-06-04T15:00:00Z,26.4679,-82.0631,2.099,5.95,1111122 
SCCF RECON,ioos:station:SCCF:11:1,2015-06-04T16:00:00Z,26.4679,-82.0631,2.26,6.69,1111122 
SCCF RECON,ioos:station:SCCF:11:1,2015-06-04T17:00:00Z,26.4679,-82.0631,2.34,6.75,1111122 
SCCF RECON,ioos:station:SCCF:11:1,2015-06-04T18:00:00Z,26.4679,-82.0631,2.38,7.06,1111122 
SCCF RECON,ioos:station:SCCF:11:1,2015-06-04T19:00:00Z,26.4679,-82.0631,2.321,8.06,1111122 
SCCF RECON,ioos:station:SCCF:11:1,2015-06-04T20:00:00Z,26.4679,-82.0631,2.2,8.04,1111122 
SCCF RECON,ioos:station:SCCF:11:1,2015-06-04T21:00:00Z,26.4679,-82.0631,2.049,7.91,1111122 
SCCF RECON,ioos:station:SCCF:11:1,2015-06-04T22:00:00Z,26.4679,-82.0631,1.889,7.81,1111122 
SCCF RECON,ioos:station:SCCF:11:1,2015-06-04T23:00:00Z,26.4679,-82.0631,1.734,7.62,1111122 
SCCF RECON,ioos:station:SCCF:11:1,2015-06-05T00:00:00Z,26.4679,-82.0631,1.598,7.38,1111122 
SCCF RECON,ioos:station:SCCF:11:1,2015-06-05T01:00:00Z,26.4679,-82.0631,1.483,7.02,1111122 
SCCF RECON,ioos:station:SCCF:11:1,2015-06-05T02:00:00Z,26.4679,-82.0631,1.429,6.81,1111122 
SCCF RECON,ioos:station:SCCF:11:1,2015-06-05T03:00:00Z,26.4679,-82.0631,1.49,6.21,1111122 
SCCF RECON,ioos:station:SCCF:11:1,2015-06-05T04:00:00Z,26.4679,-82.0631,1.636,6.48,1111122 
SCCF RECON,ioos:station:SCCF:11:1,2015-06-05T05:00:00Z,26.4679,-82.0631,1.793,6.44,1111122 
SCCF RECON,ioos:station:SCCF:11:1,2015-06-05T06:00:00Z,26.4679,-82.0631,1.91,6.03,1111122 
SCCF RECON,ioos:station:SCCF:11:1,2015-06-05T07:00:00Z,26.4679,-82.0631,2.0,6.35,1111122 
SCCF RECON,ioos:station:SCCF:11:1,2015-06-05T08:00:00Z,26.4679,-82.0631,2.07,6.23,1111122 
SCCF RECON,ioos:station:SCCF:11:1,2015-06-05T09:00:00Z,26.4679,-82.0631,2.08,5.78,1111122 
SCCF RECON,ioos:station:SCCF:11:1,2015-06-05T10:00:00Z,26.4679,-82.0631,2.0,5.83,1111122 
SCCF RECON,ioos:station:SCCF:11:1,2015-06-05T11:00:00Z,26.4679,-82.0631,1.929,5.54,1111122 
SCCF RECON,ioos:station:SCCF:11:1,2015-06-05T12:00:00Z,26.4679,-82.0631,1.88,5.34,1111122 
SCCF RECON,ioos:station:SCCF:11:1,2015-06-05T13:00:00Z,26.4679,-82.0631,1.87,5.32,1111122 
SCCF RECON,ioos:station:SCCF:11:1,2015-06-05T14:00:00Z,26.4679,-82.0631,1.898,5.06,1111122 
SCCF RECON,ioos:station:SCCF:11:1,2015-06-05T15:00:00Z,26.4679,-82.0631,2.0,5.52,1111122 
SCCF RECON,ioos:station:SCCF:11:1,2015-06-05T16:00:00Z,26.4679,-82.0631,2.11,6.5,1111122 
SCCF RECON,ioos:station:SCCF:11:1,2015-06-05T17:00:00Z,26.4679,-82.0631,2.219,6.65,1111122 
SCCF RECON,ioos:station:SCCF:11:1,2015-06-05T18:00:00Z,26.4679,-82.0631,2.28,6.67,1111122 
SCCF RECON,ioos:station:SCCF:11:1,2015-06-05T19:00:00Z,26.4679,-82.0631,2.3,6.75,1111122 
SCCF RECON,ioos:station:SCCF:11:1,2015-06-05T20:00:00Z,26.4679,-82.0631,2.27,6.83,1111122 
SCCF RECON,ioos:station:SCCF:11:1,2015-06-05T21:00:00Z,26.4679,-82.0631,2.148,7.56,1111122 
SCCF RECON,ioos:station:SCCF:11:1,2015-06-05T22:00:00Z,26.4679,-82.0631,1.987,7.53,1111122 
SCCF RECON,ioos:station:SCCF:11:1,2015-06-05T23:00:00Z,26.4679,-82.0631,1.84,7.34,1111122 
SCCF RECON,ioos:station:SCCF:11:1,2015-06-06T00:00:00Z,26.4679,-82.0631,1.737,7.21,1111122 
SCCF RECON,ioos:station:SCCF:11:1,2015-06-06T01:00:00Z,26.4679,-82.0631,1.532,6.87,1111122 
SCCF RECON,ioos:station:SCCF:11:1,2015-06-06T02:00:00Z,26.4679,-82.0631,1.43,6.19,1111122 
SCCF RECON,ioos:station:SCCF:11:1,2015-06-06T03:00:00Z,26.4679,-82.0631,1.39,5.79,1111122 
SCCF RECON,ioos:station:SCCF:11:1,2015-06-06T04:00:00Z,26.4679,-82.0631,1.46,5.46,1111122 
SCCF RECON,ioos:station:SCCF:11:1,2015-06-06T05:00:00Z,26.4679,-82.0631,1.62,5.84,1111122 
SCCF RECON,ioos:station:SCCF:11:1,2015-06-06T06:00:00Z,26.4679,-82.0631,1.795,5.86,1111122 
SCCF RECON,ioos:station:SCCF:11:1,2015-06-06T07:00:00Z,26.4679,-82.0631,1.92,5.68,1111122 
SCCF RECON,ioos:station:SCCF:11:1,2015-06-06T08:00:00Z,26.4679,-82.0631,2.0,5.1,1111122 
SCCF RECON,ioos:station:SCCF:11:1,2015-06-06T09:00:00Z,26.4679,-82.0631,2.04,6.0,1111122 
SCCF RECON,ioos:station:SCCF:11:1,2015-06-06T10:00:00Z,26.4679,-82.0631,2.04,5.93,1111122 
SCCF RECON,ioos:station:SCCF:11:1,2015-06-06T11:00:00Z,26.4679,-82.0631,2.02,5.62,1111122 
SCCF RECON,ioos:station:SCCF:11:1,2015-06-06T12:00:00Z,26.4679,-82.0631,1.93,5.61,1111122 
SCCF RECON,ioos:station:SCCF:11:1,2015-06-06T13:00:00Z,26.4679,-82.0631,1.863,5.14,1111122 
SCCF RECON,ioos:station:SCCF:11:1,2015-06-06T14:00:00Z,26.4679,-82.0631,1.87,5.06,1111122 
SCCF RECON,ioos:station:SCCF:11:1,2015-06-06T15:00:00Z,26.4679,-82.0631,1.883,4.83,1111122 
SCCF RECON,ioos:station:SCCF:11:1,2015-06-06T16:00:00Z,26.4679,-82.0631,1.952,5.27,1111122 
SCCF RECON,ioos:station:SCCF:11:1,2015-06-06T17:00:00Z,26.4679,-82.0631,2.079,6.34,1111122 
SCCF RECON,ioos:station:SCCF:11:1,2015-06-06T18:00:00Z,26.4679,-82.0631,2.186,6.75,1111122 
SCCF RECON,ioos:station:SCCF:11:1,2015-06-06T19:00:00Z,26.4679,-82.0631,2.23,7.06,1111122 
SCCF RECON,ioos:station:SCCF:11:1,2015-06-06T20:00:00Z,26.4679,-82.0631,2.21,7.45,1111122 
SCCF RECON,ioos:station:SCCF:11:1,2015-06-06T21:00:00Z,26.4679,-82.0631,2.12,7.26,1111122 
SCCF RECON,ioos:station:SCCF:11:1,2015-06-06T22:00:00Z,26.4679,-82.0631,2.03,7.08,1111122 
SCCF RECON,ioos:station:SCCF:11:1,2015-06-06T23:00:00Z,26.4679,-82.0631,1.919,6.87,1111122 
SCCF RECON,ioos:station:SCCF:11:1,2015-06-07T00:00:00Z,26.4679,-82.0631,1.77,6.79,1111122 
SCCF RECON,ioos:station:SCCF:11:1,2015-06-07T01:00:00Z,26.4679,-82.0631,1.63,6.41,1111122 
SCCF RECON,ioos:station:SCCF:11:1,2015-06-07T02:00:00Z,26.4679,-82.0631,1.499,5.79,1111122 
SCCF RECON,ioos:station:SCCF:11:1,2015-06-07T03:00:00Z,26.4679,-82.0631,1.393,5.64,1111122 
SCCF RECON,ioos:station:SCCF:11:1,2015-06-07T04:00:00Z,26.4679,-82.0631,1.39,5.4,1111122 
SCCF RECON,ioos:station:SCCF:11:1,2015-06-07T05:00:00Z,26.4679,-82.0631,1.5,5.27,1111122 
SCCF RECON,ioos:station:SCCF:11:1,2015-06-07T06:00:00Z,26.4679,-82.0631,1.65,5.76,1111122 
SCCF RECON,ioos:station:SCCF:11:1,2015-06-07T07:00:00Z,26.4679,-82.0631,1.798,5.87,1111122 
SCCF RECON,ioos:station:SCCF:11:1,2015-06-07T08:00:00Z,26.4679,-82.0631,1.94,5.19,1111122 
SCCF RECON,ioos:station:SCCF:11:1,2015-06-07T09:00:00Z,26.4679,-82.0631,2.03,5.41,1111122 
SCCF RECON,ioos:station:SCCF:11:1,2015-06-07T10:00:00Z,26.4679,-82.0631,2.07,5.59,1111122 
SCCF RECON,ioos:station:SCCF:11:1,2015-06-07T11:00:00Z,26.4679,-82.0631,2.062,5.4,1111122 
SCCF RECON,ioos:station:SCCF:11:1,2015-06-07T12:00:00Z,26.4679,-82.0631,1.98,5.03,1111122 
SCCF RECON,ioos:station:SCCF:11:1,2015-06-07T13:00:00Z,26.4679,-82.0631,1.9,5.24,1111122 
SCCF RECON,ioos:station:SCCF:11:1,2015-06-07T14:00:00Z,26.4679,-82.0631,1.85,5.08,1111122 
SCCF RECON,ioos:station:SCCF:11:1,2015-06-07T15:00:00Z,26.4679,-82.0631,1.82,5.26,1111122 
SCCF RECON,ioos:station:SCCF:11:1,2015-06-07T16:00:00Z,26.4679,-82.0631,1.859,5.48,1111122 
SCCF RECON,ioos:station:SCCF:11:1,2015-06-07T17:00:00Z,26.4679,-82.0631,1.942,5.95,1111122 
SCCF RECON,ioos:station:SCCF:11:1,2015-06-07T18:00:00Z,26.4679,-82.0631,2.064,6.54,1111122 
SCCF RECON,ioos:station:SCCF:11:1,2015-06-07T19:00:00Z,26.4679,-82.0631,2.159,7.82,1111122 
SCCF RECON,ioos:station:SCCF:11:1,2015-06-07T20:00:00Z,26.4679,-82.0631,2.212,7.29,1111122 
SCCF RECON,ioos:station:SCCF:11:1,2015-06-07T21:00:00Z,26.4679,-82.0631,2.16,7.44,1111122 
SCCF RECON,ioos:station:SCCF:11:1,2015-06-07T22:00:00Z,26.4679,-82.0631,2.12,7.36,1111122 
SCCF RECON,ioos:station:SCCF:11:1,2015-06-07T23:00:00Z,26.4679,-82.0631,2.043,6.98,1111122 
SCCF RECON,ioos:station:SCCF:11:1,2015-06-08T00:00:00Z,26.4679,-82.0631,1.907,7.14,1111122 
SCCF RECON,ioos:station:SCCF:11:1,2015-06-08T01:00:00Z,26.4679,-82.0631,1.787,6.83,1111122 
SCCF RECON,ioos:station:SCCF:11:1,2015-06-08T02:00:00Z,26.4679,-82.0631,1.64,6.68,1111122 
SCCF RECON,ioos:station:SCCF:11:1,2015-06-08T03:00:00Z,26.4679,-82.0631,1.55,6.3,1111122 
SCCF RECON,ioos:station:SCCF:11:1,2015-06-08T04:00:00Z,26.4679,-82.0631,1.47,6.11,1111122 
SCCF RECON,ioos:station:SCCF:11:1,2015-06-08T05:00:00Z,26.4679,-82.0631,1.49,5.39,1111122 
SCCF RECON,ioos:station:SCCF:11:1,2015-06-08T06:00:00Z,26.4679,-82.0631,1.58,5.64,1111122 
SCCF RECON,ioos:station:SCCF:11:1,2015-06-08T07:00:00Z,26.4679,-82.0631,1.758,5.51,1111122 
SCCF RECON,ioos:station:SCCF:11:1,2015-06-08T08:00:00Z,26.4679,-82.0631,1.89,5.26,1111122 
SCCF RECON,ioos:station:SCCF:11:1,2015-06-08T09:00:00Z,26.4679,-82.0631,1.98,5.1,1111122 
SCCF RECON,ioos:station:SCCF:11:1,2015-06-08T10:00:00Z,26.4679,-82.0631,2.08,5.63,1111122 
SCCF RECON,ioos:station:SCCF:11:1,2015-06-08T11:00:00Z,26.4679,-82.0631,2.13,5.36,1111122 
SCCF RECON,ioos:station:SCCF:11:1,2015-06-08T12:00:00Z,26.4679,-82.0631,2.09,5.34,1111122 
SCCF RECON,ioos:station:SCCF:11:1,2015-06-08T13:00:00Z,26.4679,-82.0631,1.98,5.11,1111122 
SCCF RECON,ioos:station:SCCF:11:1,2015-06-08T14:00:00Z,26.4679,-82.0631,1.89,5.23,1111122 
SCCF RECON,ioos:station:SCCF:11:1,2015-06-08T15:00:00Z,26.4679,-82.0631,1.86,5.25,1111122 
SCCF RECON,ioos:station:SCCF:11:1,2015-06-08T16:00:00Z,26.4679,-82.0631,1.838,5.53,1111122 
SCCF RECON,ioos:station:SCCF:11:1,2015-06-08T17:00:00Z,26.4679,-82.0631,1.83,6.34,1111122 
SCCF RECON,ioos:station:SCCF:11:1,2015-06-08T18:00:00Z,26.4679,-82.0631,1.899,6.99,1111122 
SCCF RECON,ioos:station:SCCF:11:1,2015-06-08T19:00:00Z,26.4679,-82.0631,1.99,7.03,1111122 
SCCF RECON,ioos:station:SCCF:11:1,2015-06-08T20:00:00Z,26.4679,-82.0631,2.07,7.66,1111122 
SCCF RECON,ioos:station:SCCF:11:1,2015-06-08T21:00:00Z,26.4679,-82.0631,2.11,7.46,1111122 
SCCF RECON,ioos:station:SCCF:11:1,2015-06-08T22:00:00Z,26.4679,-82.0631,2.12,7.71,1111122 
SCCF RECON,ioos:station:SCCF:11:1,2015-06-08T23:00:00Z,26.4679,-82.0631,2.11,8.12,1111122 
SCCF RECON,ioos:station:SCCF:11:1,2015-06-09T00:00:00Z,26.4679,-82.0631,2.06,7.79,1111122 
SCCF RECON,ioos:station:SCCF:11:1,2015-06-09T01:00:00Z,26.4679,-82.0631,1.921,7.87,1111122 
SCCF RECON,ioos:station:SCCF:11:1,2015-06-09T02:00:00Z,26.4679,-82.0631,1.81,7.73,1111122 
SCCF RECON,ioos:station:SCCF:11:1,2015-06-09T03:00:00Z,26.4679,-82.0631,1.69,7.44,1111122 
SCCF RECON,ioos:station:SCCF:11:1,2015-06-09T04:00:00Z,26.4679,-82.0631,1.611,7.24,1111122 
SCCF RECON,ioos:station:SCCF:11:1,2015-06-09T05:00:00Z,26.4679,-82.0631,1.539,6.97,1111122 
SCCF RECON,ioos:station:SCCF:11:1,2015-06-09T06:00:00Z,26.4679,-82.0631,1.55,6.54,1111122 
SCCF RECON,ioos:station:SCCF:11:1,2015-06-09T07:00:00Z,26.4679,-82.0631,1.67,6.17,1111122 
SCCF RECON,ioos:station:SCCF:11:1,2015-06-09T08:00:00Z,26.4679,-82.0631,1.806,5.69,1111122 
SCCF RECON,ioos:station:SCCF:11:1,2015-06-09T09:00:00Z,26.4679,-82.0631,1.91,5.91,1111122 
SCCF RECON,ioos:station:SCCF:11:1,2015-06-09T10:00:00Z,26.4679,-82.0631,1.994,5.76,1111122 
SCCF RECON,ioos:station:SCCF:11:1,2015-06-09T11:00:00Z,26.4679,-82.0631,2.08,5.6,1111122 
SCCF RECON,ioos:station:SCCF:11:1,2015-06-09T12:00:00Z,26.4679,-82.0631,2.11,5.74,1111122 
SCCF RECON,ioos:station:SCCF:11:1,2015-06-09T13:00:00Z,26.4679,-82.0631,2.08,5.81,1111122 
SCCF RECON,ioos:station:SCCF:11:1,2015-06-09T14:00:00Z,26.4679,-82.0631,1.99,5.86,1111122 
SCCF RECON,ioos:station:SCCF:11:1,2015-06-09T15:00:00Z,26.4679,-82.0631,1.879,6.06,1111122 
SCCF RECON,ioos:station:SCCF:11:1,2015-06-09T16:00:00Z,26.4679,-82.0631,1.81,6.24,1111122 
SCCF RECON,ioos:station:SCCF:11:1,2015-06-09T17:00:00Z,26.4679,-82.0631,1.74,6.5,1111122 
SCCF RECON,ioos:station:SCCF:11:1,2015-06-09T18:00:00Z,26.4679,-82.0631,1.704,7.45,1111122 
SCCF RECON,ioos:station:SCCF:11:1,2015-06-09T19:00:00Z,26.4679,-82.0631,1.75,7.11,1111122 
SCCF RECON,ioos:station:SCCF:11:1,2015-06-09T20:00:00Z,26.4679,-82.0631,1.861,9.03,1111122 
SCCF RECON,ioos:station:SCCF:11:1,2015-06-09T21:00:00Z,26.4679,-82.0631,1.982,7.91,1111122 
SCCF RECON,ioos:station:SCCF:11:1,2015-06-09T22:00:00Z,26.4679,-82.0631,2.05,7.95,1111122 
SCCF RECON,ioos:station:SCCF:11:1,2015-06-09T23:00:00Z,26.4679,-82.0631,2.08,7.93,1111122 
SCCF RECON,ioos:station:SCCF:11:1,2015-06-10T00:00:00Z,26.4679,-82.0631,2.091,7.83,1111122 
SCCF RECON,ioos:station:SCCF:11:1,2015-06-10T01:00:00Z,26.4679,-82.0631,2.06,7.49,1111122 
SCCF RECON,ioos:station:SCCF:11:1,2015-06-10T02:00:00Z,26.4679,-82.0631,1.99,7.96,1111122 
SCCF RECON,ioos:station:SCCF:11:1,2015-06-10T03:00:00Z,26.4679,-82.0631,1.9,7.8,1111122 
SCCF RECON,ioos:station:SCCF:11:1,2015-06-10T04:00:00Z,26.4679,-82.0631,1.785,7.27,1111122 
SCCF RECON,ioos:station:SCCF:11:1,2015-06-10T05:00:00Z,26.4679,-82.0631,1.71,7.06,1111122 
SCCF RECON,ioos:station:SCCF:11:1,2015-06-10T06:00:00Z,26.4679,-82.0631,1.7,6.64,1111122 
SCCF RECON,ioos:station:SCCF:11:1,2015-06-10T07:00:00Z,26.4679,-82.0631,1.779,5.84,1111122 
SCCF RECON,ioos:station:SCCF:11:1,2015-06-10T08:00:00Z,26.4679,-82.0631,1.83,5.81,1111122 
SCCF RECON,ioos:station:SCCF:11:1,2015-06-10T09:00:00Z,26.4679,-82.0631,1.974,5.86,1111122 
SCCF RECON,ioos:station:SCCF:11:1,2015-06-10T10:00:00Z,26.4679,-82.0631,2.08,5.79,1111122 
SCCF RECON,ioos:station:SCCF:11:1,2015-06-10T11:00:00Z,26.4679,-82.0631,2.16,5.6,1111122 
SCCF RECON,ioos:station:SCCF:11:1,2015-06-10T12:00:00Z,26.4679,-82.0631,2.23,5.72,1111122 
SCCF RECON,ioos:station:SCCF:11:1,2015-06-10T13:00:00Z,26.4679,-82.0631,2.24,5.45,1111122 
SCCF RECON,ioos:station:SCCF:11:1,2015-06-10T14:00:00Z,26.4679,-82.0631,2.194,5.79,1111122 
SCCF RECON,ioos:station:SCCF:11:1,2015-06-10T15:00:00Z,26.4679,-82.0631,2.09,5.55,1111122 
SCCF RECON,ioos:station:SCCF:11:1,2015-06-10T16:00:00Z,26.4679,-82.0631,1.968,6.07,1111122 
SCCF RECON,ioos:station:SCCF:11:1,2015-06-10T17:00:00Z,26.4679,-82.0631,1.839,6.55,1111122 
SCCF RECON,ioos:station:SCCF:11:1,2015-06-10T18:00:00Z,26.4679,-82.0631,1.733,6.82,1111122 
SCCF RECON,ioos:station:SCCF:11:1,2015-06-10T19:00:00Z,26.4679,-82.0631,1.69,7.4,1111122 
SCCF RECON,ioos:station:SCCF:11:1,2015-06-10T20:00:00Z,26.4679,-82.0631,1.712,7.53,1111122 
SCCF RECON,ioos:station:SCCF:11:1,2015-06-10T21:00:00Z,26.4679,-82.0631,1.836,7.21,1111122 
SCCF RECON,ioos:station:SCCF:11:1,2015-06-10T22:00:00Z,26.4679,-82.0631,1.952,7.2,1111122 
SCCF RECON,ioos:station:SCCF:11:1,2015-06-10T23:00:00Z,26.4679,-82.0631,2.02,7.27,1111122 
SCCF RECON,ioos:station:SCCF:11:1,2015-06-11T00:00:00Z,26.4679,-82.0631,2.09,7.73,1111122 
SCCF RECON,ioos:station:SCCF:11:1,2015-06-11T01:00:00Z,26.4679,-82.0631,2.151,6.64,1111122 
SCCF RECON,ioos:station:SCCF:11:1,2015-06-11T02:00:00Z,26.4679,-82.0631,2.121,6.96,1111122 
SCCF RECON,ioos:station:SCCF:11:1,2015-06-11T03:00:00Z,26.4679,-82.0631,1.966,6.72,1111122 
SCCF RECON,ioos:station:SCCF:11:1,2015-06-11T04:00:00Z,26.4679,-82.0631,1.851,6.65,1111122 
SCCF RECON,ioos:station:SCCF:11:1,2015-06-11T05:00:00Z,26.4679,-82.0631,1.75,6.32,1111122 
SCCF RECON,ioos:station:SCCF:11:1,2015-06-11T06:00:00Z,26.4679,-82.0631,1.863,5.87,1111122 
SCCF RECON,ioos:station:SCCF:11:1,2015-06-11T07:00:00Z,26.4679,-82.0631,1.727,5.92,1111122 
SCCF RECON,ioos:station:SCCF:11:1,2015-06-11T08:00:00Z,26.4679,-82.0631,1.675,5.84,1111122 
SCCF RECON,ioos:station:SCCF:11:1,2015-06-11T09:00:00Z,26.4679,-82.0631,1.78,5.4,1111122 
SCCF RECON,ioos:station:SCCF:11:1,2015-06-11T10:00:00Z,26.4679,-82.0631,1.88,5.65,1111122 
SCCF RECON,ioos:station:SCCF:11:1,2015-06-11T11:00:00Z,26.4679,-82.0631,2.01,5.67,1111122 
SCCF RECON,ioos:station:SCCF:11:1,2015-06-11T12:00:00Z,26.4679,-82.0631,2.11,5.65,1111122 
SCCF RECON,ioos:station:SCCF:11:1,2015-06-11T13:00:00Z,26.4679,-82.0631,2.19,5.41,1111122 
SCCF RECON,ioos:station:SCCF:11:1,2015-06-11T14:00:00Z,26.4679,-82.0631,2.22,5.47,1111122 
SCCF RECON,ioos:station:SCCF:11:1,2015-06-11T15:00:00Z,26.4679,-82.0631,2.18,5.61,1111122 
SCCF RECON,ioos:station:SCCF:11:1,2015-06-11T16:00:00Z,26.4679,-82.0631,2.045,5.74,1111122 
SCCF RECON,ioos:station:SCCF:11:1,2015-06-11T17:00:00Z,26.4679,-82.0631,1.899,6.04,1111122 
SCCF RECON,ioos:station:SCCF:11:1,2015-06-11T18:00:00Z,26.4679,-82.0631,1.761,6.45,1111122 
SCCF RECON,ioos:station:SCCF:11:1,2015-06-11T19:00:00Z,26.4679,-82.0631,1.633,6.62,1111122 
SCCF RECON,ioos:station:SCCF:11:1,2015-06-11T20:00:00Z,26.4679,-82.0631,1.55,7.24,1111122 
SCCF RECON,ioos:station:SCCF:11:1,2015-06-11T21:00:00Z,26.4679,-82.0631,1.54,7.47,1111122 
SCCF RECON,ioos:station:SCCF:11:1,2015-06-11T22:00:00Z,26.4679,-82.0631,1.669,7.89,1111122 